Regional Weather Roundup
Issued by NWS Green Bay, WI

Home | Current Version | Previous Version | Text Only | Print | Product List | Glossary On
Versions: 1 2 3 4 5 6 7 8 9 10 11 12 13 14 15 16 17 18 19 20 21 22 23 24 25 26 27 28 29 30 31 32 33 34 35 36 37 38 39 40 41 42 43 44 45 46 47 48 49 50
000
ASUS43 KGRB 281211
RWRGRB

NORTH-CENTRAL AND NORTHEAST WISCONSIN REGIONAL WEATHER ROUNDUP
NATIONAL WEATHER SERVICE GREEN BAY WI
600 AM CST TUE FEB 28 2017

WIZ005-009-010>012-018-019-281300-
NORTH CENTRAL WISCONSIN

CITY           SKY/WX    TMP DP  RH WIND       PRES   REMARKS
IRONWOOD       LGT RAIN  36  30  79 W6        29.81R
MANITOWISH WTR CLOUDY    32  30  93 CALM      29.79F
ARBOR VITAE    CLOUDY    32  29  89 E5          N/A
EAGLE RIVER    CLOUDY    31  28  87 CALM      29.80F
LAND O LAKES   CLOUDY    35  30  84 CALM      29.82S
RHINELANDER    CLOUDY    35  31  85 SE5       29.80F
PHILLIPS       CLOUDY    32  29  91 E3        29.76F
ANTIGO         CLOUDY    33  32  98 SE5       29.81F FOG
TOMAHAWK       CLOUDY    33  29  88 CALM      29.79F
MERRILL        NOT AVBL
$$

WIZ013-073-281300-
NORTHEAST WISCONSIN

CITY           SKY/WX    TMP DP  RH WIND       PRES   REMARKS
IRON MOUNTAIN  CLOUDY    26  23  88 S3        29.84F FOG
MARINETTE      CLOUDY    38  36  92 CALM      29.88S
OCONTO         CLOUDY    37  36  96 CALM      29.86F
$$

WIZ017-030-035>037-045-281300-
CENTRAL WISCONSIN

CITY           SKY/WX    TMP DP  RH WIND       PRES   REMARKS
MEDFORD        CLOUDY    35  32  88 E3        29.77F
WAUSAU         CLOUDY    34  31  88 E6        29.79F FOG
MOSINEE        CLOUDY    34  34 100 SE5       29.81S FOG
MARSHFIELD     CLOUDY    36  33  89 E7        29.76F
WISC RAPIDS    LGT RAIN  38  38 100 E7        29.79F FOG
STEVENS POINT  CLOUDY    36  36 100 SE5       29.80F FOG
WAUPACA        DRIZZLE   38  36  94 N3        29.82F
SHAWANO        RAIN      37  35  90 CALM      29.85S
CLINTONVILLE   LGT RAIN  36  34  93 NW3       29.84S
WAUTOMA        LGT RAIN  37  37 100 E5        29.80F FOG
$$

WIZ038-039-048-051-281300-
FOX VALLEY

CITY           SKY/WX    TMP DP  RH WIND       PRES   REMARKS
NWS GREEN BAY  LGT RAIN  39  39 100 SE10      29.85F FOG
APPLETON       LGT RAIN  36  36 100 SE7       29.82F
OSHKOSH        CLOUDY    38  36  92 SE9       29.82F FOG
FOND DU LAC    LGT RAIN  39  36  89 E7        29.82F FOG
$$

WIZ022-050-052-281300-
EAST CENTRAL WISCONSIN

CITY           SKY/WX    TMP DP  RH WIND       PRES   REMARKS
EPHRAIM        DRIZZLE   39  38  99 S9        29.87F
WASHINGTON ISL DRIZZLE   38  35  89 S8        29.87F
STURGEON BAY   LGT RAIN  39  37  92 S12G20    29.86F
MANITOWOC      RAIN      38  37  97 SE7       29.88F FOG
SHEBOYGAN      LGT RAIN  40  39  97 SE7       29.84F FOG
$$

LMZ563-521-522-541>543-281300-
LAKESHORE

STATION/POSITION TIME  TEMP    WIND        PRES    VSBY  WAVE
                       AIR SEA DIR/SP/G                  HT/PER
                 (UTC) (F)     (DEG/KT/KT) (MB)    (MI)  (FT/S)
SHEBOYGAN LKSHOR 1200   39     130/ 16/ 18 1011.0F
KEWAUNEE LKSHORE 1148   39     190/ 12/ 14 1011.6F
NORTHPORT PIER   1140   38     150/  8/ 11 1011.9F
SISTER BAY LKSHO 1135   39     160/ 13/ 15   N/A
CHAMBERS ISLAND  1140   39     160/  6/ 12 1011.5S
MENOMINEE LKSHOR 1148   36     180/  5/  7 1010.7F
$$




USA.gov is the U.S. government's official web portal to all federal, state and local government web resources and services.